Theta_e
289 289 289 289 289 289 289 289 289 289 289 289 289 289 289 289 289 289 288 288 288 289 289 289 288 288 288 288 288 288 289 290 291 291 292 293 294 295 296 296 297 297 297 297 297 297 296 296 296 296 296 296 296 296 297 296 296 296 296 295 295 295 295 295 295 295 295 295 295 295 295 295 296 296 296 296 296 297 297 297 297 297 297 297 297
289 289 289 289 289 289 289 289 289 289 289 289 289 289 289 289 289 289 288 288 288 288 288 288 288 288 288 288 288 288 288 288 288 288 289 290 291 292 293 293 294 296 296 297 297 297 296 296 296 296 296 296 296 296 296 296 296 296 296 296 295 295 295 294 294 295 295 295 295 295 295 295 296 296 296 296 296 296 296 296 296 296 297 296 296
290 290 289 289 289 289 289 289 289 289 289 289 289 289 289 289 289 289 289 289 289 289 288 288 288 288 288 288 288 288 288 287 287 287 287 287 288 288 289 290 291 292 293 295 296 296 297 296 296 296 295 295 295 295 295 295 295 295 296 296 296 296 295 294 294 294 294 294 295 295 295 296 296 296 296 296 296 296 296 296 296 296 296 296 296
290 290 290 289 289 289 289 289 289 289 289 289 289 289 289 289 289 289 289 289 289 289 289 289 289 289 289 288 288 288 288 288 287 287 287 287 287 287 287 287 288 289 290 291 292 294 295 296 296 296 295 295 295 295 294 295 295 295 295 295 295 295 295 295 295 294 294 293 294 294 294 295 295 296 296 296 296 295 295 295 295 296 296 296 296
290 290 289 289 289 289 289 289 289 289 289 289 289 289 289 289 289 289 289 288 288 288 288 288 288 288 288 288 288 288 288 288 288 288 288 287 287 287 287 287 287 287 287 288 289 290 292 293 295 295 295 295 295 295 294 294 294 294 294 294 294 294 294 294 295 295 294 294 293 293 293 293 294 294 295 295 295 295 295 295 295 295 295 296 296
290 290 289 289 289 289 289 289 289 289 289 289 289 289 289 289 288 288 288 288 288 287 287 287 287 287 287 287 288 288 288 288 288 288 288 288 288 287 287 287 287 287 287 287 287 287 288 289 291 292 293 294 295 295 294 294 293 293 293 294 294 294 294 294 294 294 294 294 294 293 293 293 293 293 293 294 294 294 294 295 295 295 295 295 296
290 290 290 289 289 289 289 289 289 288 288 288 288 288 288 288 288 288 287 287 287 287 287 287 287 287 287 287 287 287 287 287 287 288 288 288 288 288 288 287 287 287 287 287 287 286 286 287 288 289 290 291 293 294 294 294 293 293 293 293 293 292 293 293 293 293 293 294 294 293 293 293 292 292 292 293 293 293 294 294 294 295 295 295 295
290 290 289 289 289 289 289 289 288 288 288 288 287 287 287 287 287 287 286 286 286 286 286 286 286 286 286 286 286 286 286 286 286 287 287 287 287 287 288 288 288 288 287 287 287 287 286 286 286 286 287 288 289 291 292 293 293 293 293 292 292 292 292 292 292 292 292 293 293 293 293 292 292 292 292 292 292 293 293 293 294 294 294 295 295
290 290 290 289 289 289 289 288 288 288 288 287 287 287 286 286 286 286 285 285 285 285 285 285 285 285 285 285 286 286 286 286 286 286 286 286 286 286 286 287 287 287 287 287 287 287 287 287 286 286 286 286 287 287 289 290 292 293 293 292 291 291 291 291 291 291 292 292 292 292 292 292 292 292 291 291 292 292 292 293 293 293 294 294 294
290 290 289 289 289 289 288 288 287 287 287 286 286 286 286 285 285 285 285 285 284 284 284 284 284 284 284 285 285 285 285 285 286 286 285 285 285 285 285 285 286 286 286 287 287 287 287 287 287 287 286 286 286 286 286 287 288 290 292 293 292 291 291 291 291 291 291 291 291 291 291 291 292 291 291 291 291 291 292 292 292 293 293 293 294
289 289 288 288 288 287 287 287 286 286 286 286 285 285 285 285 284 284 284 284 284 284 284 284 284 283 283 283 284 284 284 284 285 285 284 284 284 283 283 283 284 284 285 285 286 286 287 287 287 287 287 286 286 286 286 286 286 287 289 290 291 292 291 291 291 291 290 291 291 291 291 291 291 291 291 291 291 291 291 291 291 292 292 293 293
288 287 287 286 286 285 285 285 285 284 284 284 284 284 284 284 284 284 284 284 283 283 283 283 283 283 282 282 282 283 283 283 284 283 283 283 282 282 282 282 282 283 284 284 284 285 285 286 286 287 287 287 286 286 286 286 286 286 286 287 289 291 292 292 291 291 290 290 290 290 290 291 291 291 290 290 290 290 290 290 291 291 292 292 293
286 286 285 285 284 284 283 283 283 283 283 282 282 282 282 283 283 283 283 283 283 283 283 283 283 283 282 282 282 282 282 283 283 283 283 282 281 281 281 282 282 282 282 283 283 284 284 284 285 285 286 286 287 286 286 286 286 286 286 286 286 288 290 291 292 291 291 290 290 290 291 291 290 290 290 290 290 290 289 290 290 290 291 291 292
285 284 284 283 283 283 283 282 282 282 281 281 281 281 282 282 282 282 282 282 282 283 283 283 283 283 282 282 281 281 282 282 282 282 282 282 281 280 280 281 281 282 282 282 283 283 283 283 284 284 285 285 286 286 287 286 286 286 286 286 286 286 286 288 290 291 291 291 290 291 292 291 290 290 290 290 290 289 289 289 289 290 290 291 291
283 283 283 283 283 282 282 282 281 281 281 281 281 281 281 281 281 280 280 281 281 281 281 281 282 282 282 281 280 280 281 281 280 280 279 279 279 279 279 280 280 281 281 281 282 282 282 282 283 283 283 284 285 285 286 286 286 286 286 286 286 286 286 286 287 289 290 291 291 291 292 292 291 290 290 289 290 289 289 289 289 289 290 290 290
283 283 283 282 282 281 281 281 281 281 281 280 280 280 280 279 279 279 279 280 280 280 280 280 280 280 280 280 279 279 280 280 279 277 277 277 277 278 278 279 279 279 280 280 280 281 281 282 282 282 283 283 284 284 284 285 285 286 286 286 286 286 286 286 286 286 288 289 290 291 292 292 291 291 290 289 289 289 289 288 288 288 288 288 289
283 283 282 282 281 281 280 280 280 280 280 279 279 279 279 279 279 278 278 279 279 279 278 278 278 278 278 278 276 276 278 278 277 276 275 275 275 276 276 277 277 278 278 279 279 280 281 281 282 282 283 283 283 283 284 284 284 285 285 286 286 286 286 286 286 286 286 287 288 290 291 292 291 291 290 289 289 289 288 288 287 287 287 287 288
282 282 282 281 281 280 280 280 279 279 278 278 278 279 278 278 278 278 277 277 278 277 276 276 276 276 275 275 274 273 274 275 274 273 273 273 273 273 274 275 275 276 276 277 278 279 279 280 280 281 281 282 282 282 283 283 284 284 284 285 285 285 286 286 286 286 286 286 286 287 289 291 291 290 290 290 289 289 288 288 288 287 286 287 287
281 281 281 280 280 280 279 279 278 278 278 278 278 278 278 277 277 276 276 275 275 275 274 274 274 274 272 272 272 271 272 272 272 271 271 271 271 271 272 273 273 274 274 275 276 276 277 278 278 279 280 281 281 282 282 283 283 284 284 284 284 285 285 286 286 286 286 286 286 286 286 288 290 290 290 290 290 289 288 288 288 287 286 287 287
280 280 280 280 279 279 278 278 278 277 277 277 277 277 276 276 275 274 274 273 273 273 273 272 272 272 271 270 270 270 270 270 270 270 269 269 269 270 271 271 272 273 273 274 274 275 275 276 276 277 278 279 280 281 282 283 283 284 284 284 284 284 285 286 286 286 286 286 286 285 285 286 288 289 289 289 289 289 289 289 288 287 287 287 287
280 280 280 279 278 278 277 277 277 277 277 277 276 276 275 274 274 273 273 273 272 272 271 271 271 271 270 269 269 269 268 268 268 267 267 267 268 269 270 270 271 272 272 273 273 273 274 274 274 275 276 276 277 279 280 281 282 283 284 284 284 283 284 285 285 285 285 285 285 285 285 285 287 288 288 289 289 289 289 289 289 288 287 287 286
279 279 279 278 278 277 277 277 277 276 276 275 275 275 274 273 272 272 271 271 271 271 270 270 269 269 269 268 268 268 267 267 266 266 266 267 268 269 269 270 271 271 272 272 272 273 273 274 274 275 275 276 277 277 278 279 280 282 283 285 284 284 284 284 285 285 285 285 285 285 285 285 286 287 288 288 288 288 288 289 289 289 288 287 287
279 279 278 278 277 277 277 277 276 276 275 274 274 274 273 272 271 271 270 270 270 270 269 269 268 267 267 267 267 267 267 266 266 266 266 266 267 268 269 269 270 271 271 271 272 272 273 273 273 274 275 276 277 278 279 279 280 281 282 284 285 285 284 284 285 286 286 285 286 286 286 285 285 286 287 288 289 289 288 288 289 289 288 288 287
279 278 278 277 277 277 277 276 276 275 274 274 273 273 272 271 271 270 270 269 269 268 268 267 266 265 265 265 265 266 266 266 266 266 266 266 267 267 268 269 269 269 270 270 270 270 271 271 272 273 274 275 276 277 278 279 280 281 282 283 284 285 285 285 285 286 287 286 286 286 286 285 284 285 286 287 288 288 287 287 287 288 288 288 287
278 278 277 277 277 276 276 276 276 275 274 273 272 272 271 271 270 270 270 269 268 267 266 265 265 264 264 264 264 265 265 265 266 266 266 266 267 267 268 268 269 269 269 269 269 269 270 271 272 273 274 275 275 276 277 278 279 280 282 283 284 285 285 285 286 286 287 287 287 286 286 284 284 284 285 286 287 287 286 286 286 287 287 287 287
277 277 277 277 276 276 276 276 275 275 274 272 272 271 271 270 270 270 270 269 267 266 265 264 264 264 264 264 264 265 265 266 266 266 267 267 267 268 269 269 269 270 270 270 270 270 271 271 272 272 273 273 274 275 276 277 278 279 280 282 283 284 285 285 286 286 286 287 287 286 285 284 283 284 285 286 286 286 286 286 286 286 286 286 286
277 277 276 276 276 276 276 276 275 274 273 272 271 271 271 270 269 270 270 268 267 265 264 264 264 264 264 265 265 266 266 266 267 267 267 267 268 269 269 270 270 270 270 271 271 271 271 272 272 272 273 273 274 275 275 276 277 278 279 281 282 284 284 284 285 286 286 286 287 286 285 284 284 285 285 285 286 286 286 286 286 285 286 286 286
276 276 276 276 276 276 275 275 275 274 273 272 271 271 271 270 270 270 270 268 265 264 264 264 264 265 265 266 266 266 267 267 267 267 267 268 269 269 270 270 271 271 271 271 272 272 272 272 272 273 273 274 274 274 275 275 276 278 279 280 281 283 284 284 284 285 285 286 286 286 286 285 285 285 285 285 285 285 286 286 285 285 285 285 285
276 276 276 276 275 275 275 274 274 273 272 271 270 270 271 270 269 269 269 268 265 264 264 265 265 265 266 266 267 267 267 267 267 268 269 269 270 270 270 271 271 271 271 272 272 272 273 273 273 273 273 273 274 274 274 275 276 277 279 280 281 283 284 284 284 284 285 285 286 286 286 286 285 285 285 285 285 285 285 285 285 285 285 284 284
275 275 275 275 275 275 275 274 274 273 271 270 270 270 271 271 270 268 268 268 267 265 265 266 266 266 266 267 267 267 267 268 268 269 269 270 270 270 271 271 271 272 272 272 273 273 273 273 273 273 273 273 274 274 274 275 275 276 278 280 282 283 284 284 284 283 283 284 285 285 285 285 285 285 285 285 285 285 285 285 285 285 284 284 284
275 275 275 275 275 274 274 274 273 272 271 270 270 270 271 272 272 271 269 268 268 267 267 267 267 267 267 267 267 267 268 268 269 269 270 270 271 271 271 271 272 272 272 273 273 273 273 273 273 274 274 274 274 274 274 275 275 276 276 278 280 281 283 283 283 283 283 283 284 285 285 285 285 285 285 284 284 285 285 285 284 284 284 284 283
274 274 274 274 274 274 274 274 273 272 270 270 270 270 270 271 272 273 272 270 269 269 269 268 268 268 267 267 267 267 268 268 270 270 270 271 271 271 271 272 272 272 273 273 273 273 273 273 273 273 273 274 274 274 275 275 275 275 276 276 277 279 280 281 282 282 282 282 283 284 284 284 285 285 285 284 284 284 284 284 284 284 283 283 283
273 274 274 274 274 274 274 273 272 271 270 270 270 271 270 270 270 272 273 274 273 271 270 269 268 268 268 268 267 268 268 269 270 271 271 271 271 272 272 272 272 272 273 273 273 273 273 273 273 273 273 273 274 274 275 275 275 275 275 276 277 278 279 281 282 281 281 282 282 283 283 283 284 284 285 284 284 284 284 284 283 283 283 282 282
273 273 273 273 273 274 273 273 272 271 270 270 270 270 270 270 269 268 269 271 273 274 273 272 270 269 268 269 269 268 268 269 269 270 270 271 271 272 272 272 272 273 273 273 273 273 273 273 273 273 274 274 274 275 275 275 275 275 275 276 277 277 278 280 281 281 281 281 282 283 283 283 283 284 284 284 284 284 284 283 283 283 282 282 281
273 273 273 273 273 273 273 272 271 271 270 271 271 271 270 270 269 267 266 266 268 270 272 273 273 271 270 270 270 269 269 269 270 270 270 271 272 272 271 271 271 272 273 273 273 273 273 273 273 274 274 274 275 275 275 275 276 275 276 276 277 277 278 278 279 280 280 280 281 282 282 283 284 284 284 284 284 284 283 283 282 282 282 282 281
272 273 273 273 273 273 273 272 271 271 270 271 271 271 270 270 269 268 267 266 266 266 268 270 272 272 272 271 270 270 270 270 270 271 271 271 271 271 271 270 271 271 272 272 272 272 273 273 274 274 275 275 275 275 276 276 276 276 276 276 277 278 278 278 278 279 279 280 280 281 281 282 283 283 284 283 283 284 283 283 283 282 282 282 281
272 272 273 273 273 273 273 272 271 271 271 271 271 271 271 270 269 268 267 266 266 266 267 268 269 270 272 272 271 270 271 271 271 272 272 271 271 271 271 270 270 270 271 271 272 272 272 273 274 274 275 275 276 276 276 277 277 277 277 277 278 278 279 278 279 280 280 280 281 281 281 281 282 282 283 283 283 283 283 283 282 282 281 281 280
271 272 272 272 272 272 272 272 272 271 271 271 271 271 270 270 269 268 268 267 267 266 267 267 267 267 268 270 271 270 270 270 271 272 272 272 272 272 271 270 270 270 271 271 272 272 273 274 274 275 275 276 276 276 277 277 278 278 278 278 278 278 279 279 280 280 281 280 280 281 281 281 282 282 282 283 283 283 282 282 281 281 280 279 279
271 271 271 271 271 271 271 271 271 271 271 271 271 271 271 270 270 270 269 269 268 268 267 267 267 266 266 267 268 267 267 268 269 271 272 272 272 272 271 270 270 271 272 272 273 273 274 274 275 275 276 277 278 278 278 278 278 278 279 278 278 279 279 280 280 280 281 280 280 280 280 281 281 282 282 282 282 282 282 281 281 281 280 279 279
271 271 271 271 271 271 270 270 271 271 271 271 271 271 271 271 270 270 270 269 269 268 268 267 267 267 267 266 265 265 265 267 269 270 271 272 272 272 272 271 272 272 272 273 273 274 274 275 275 276 276 278 279 280 280 279 280 280 279 279 280 280 280 281 280 281 281 281 280 280 281 281 281 282 282 282 282 282 282 282 281 280 280 279 278
270 271 271 271 271 271 270 270 270 271 271 271 271 271 271 271 270 270 270 269 269 269 268 268 268 268 268 267 266 266 266 268 270 270 271 271 271 272 272 272 272 272 272 273 273 273 274 275 276 276 277 278 279 279 279 280 280 280 280 280 281 281 281 281 281 281 281 281 281 281 281 281 282 282 281 281 281 281 281 281 280 279 278 278 277
270 270 271 271 271 271 270 270 270 270 271 271 271 271 270 270 270 269 269 269 269 269 269 269 269 270 270 269 269 269 269 270 271 271 271 271 271 272 272 272 272 272 272 273 273 273 274 275 276 276 277 277 277 278 279 279 280 280 280 281 281 281 281 281 282 282 282 281 281 281 281 281 281 281 281 281 281 280 280 279 279 278 277 277 276
269 270 270 270 270 270 270 270 270 270 270 271 271 271 271 270 270 270 270 270 269 269 269 269 270 270 270 270 270 271 271 271 272 271 271 272 272 272 272 272 272 272 272 273 273 273 273 274 275 276 276 276 277 277 278 278 279 279 280 280 280 280 281 281 281 281 281 281 281 281 280 280 280 280 280 280 280 279 279 278 277 277 276 276 276
269 269 269 269 270 270 270 270 270 270 270 270 271 271 271 271 271 270 270 270 270 269 269 269 270 270 271 271 271 271 271 271 271 271 271 272 272 272 272 272 272 273 272 272 272 273 273 274 275 275 276 276 276 276 277 277 277 278 278 279 279 279 279 279 279 280 280 280 280 280 280 280 280 279 279 279 279 278 277 277 276 276 276 275 275
269 269 268 269 269 269 270 270 269 270 270 270 270 271 271 271 271 270 270 270 270 270 269 269 269 270 270 270 271 271 271 271 271 271 271 271 271 271 272 272 272 272 272 272 272 272 272 273 274 274 275 275 275 275 275 275 276 276 277 277 277 277 278 278 278 278 278 278 278 279 279 279 278 278 278 278 277 277 277 276 276 275 275 275 274
268 268 268 268 269 269 269 269 269 269 270 270 270 270 270 270 270 270 270 270 270 269 269 269 269 269 269 270 270 270 270 270 270 270 270 270 271 271 271 271 272 272 272 272 272 272 272 272 272 273 273 273 273 273 274 274 275 275 276 276 276 276 276 276 276 276 277 277 277 277 277 277 277 277 277 276 276 276 275 275 275 275 274 274 274
268 268 268 268 268 269 269 269 269 269 269 270 270 270 270 270 270 270 270 269 269 269 269 269 269 269 269 269 269 269 269 269 269 269 270 270 270 270 270 271 271 271 272 272 272 272 272 272 272 272 272 272 272 273 273 273 274 274 275 275 275 275 275 275 275 275 275 275 275 275 276 276 276 276 275 275 275 275 274 274 274 274 274 273 273
267 267 267 267 267 268 268 269 269 269 269 269 269 269 269 269 269 269 269 269 269 269 269 269 269 269 269 269 269 269 269 269 269 269 269 269 269 269 269 270 270 270 271 271 272 272 272 272 272 272 272 273 273 273 273 273 274 274 274 274 274 274 274 274 274 274 274 274 274 274 274 274 274 274 274 274 274 273 273 273 273 273 273 272 272
267 267 267 267 267 267 268 268 268 269 269 269 269 269 269 269 269 269 269 269 269 269 269 269 269 269 269 269 269 269 269 269 269 269 269 269 269 269 269 269 270 270 270 271 271 271 272 272 272 272 272 272 273 273 273 273 273 273 274 274 274 274 274 273 273 273 273 273 273 273 273 273 273 273 273 273 273 272 272 272 272 272 272 272 271
267 267 267 267 267 267 267 267 268 268 268 268 269 269 269 269 268 268 268 268 268 268 268 268 268 268 268 269 269 269 269 269 269 269 269 269 269 269 269 270 270 270 270 270 270 271 271 271 272 272 272 272 272 272 272 272 272 273 273 273 273 273 273 273 272 272 272 272 272 272 272 272 272 272 272 272 272 272 272 272 272 272 271 271 271
267 267 266 266 266 267 267 267 267 268 268 268 268 268 268 268 268 268 268 268 268 268 268 268 268 268 268 268 268 268 268 268 268 269 269 269 269 269 269 269 270 270 270 270 270 271 271 271 271 271 271 272 272 272 272 272 272 272 272 272 273 273 273 272 272 272 271 271 272 272 272 272 272 272 271 271 271 272 272 272 272 271 271 271 271
Wind_Speed
16 17 17 17 16 16 15 15 14 14 14 14 14 14 15 15 15 16 16 17 18 19 20 21 23 23 23 23 22 21 20 20 20 21 21 21 21 21 21 22 22 22 22 22 22 23 25 27 29 29 29 31 33 34 36 37 39 41 44 46 48 47 45 44 49 53 51 47 46 46 44 43 43 43 41 39 39 38 37 37 36 37 36 36 35
18 18 19 19 19 20 20 20 20 21 20 20 20 19 19 19 19 19 19 20 21 21 21 22 22 24 25 25 25 24 23 23 22 23 23 23 23 23 23 24 25 25 25 24 23 23 24 26 28 28 28 30 31 31 33 34 36 39 41 43 47 49 49 48 50 51 51 48 45 45 45 45 46 46 44 42 41 39 39 39 38 38 38 38 37
18 18 18 19 20 20 21 22 23 24 25 26 26 26 26 26 25 25 25 25 25 25 25 25 25 26 26 26 26 26 26 26 26 25 25 25 25 25 25 26 27 27 27 27 26 25 26 27 27 27 26 29 30 31 31 32 33 36 39 40 43 46 48 49 51 54 54 51 46 44 44 44 47 47 46 44 42 41 41 41 39 39 40 40 39
18 19 19 19 20 20 22 23 25 26 27 28 29 30 31 32 32 32 32 32 31 30 29 29 29 30 30 29 28 27 27 28 28 29 29 28 28 28 27 27 28 28 29 28 28 28 28 29 29 28 28 29 30 30 30 31 32 34 36 38 40 43 44 45 49 53 54 53 51 49 46 45 46 47 46 45 44 44 44 43 43 42 42 41 41
21 21 22 23 23 24 26 27 28 29 30 30 31 32 33 34 35 35 36 37 37 36 34 34 33 33 33 33 32 31 30 30 30 31 31 31 32 32 31 31 30 30 30 30 29 29 29 31 31 30 30 31 32 31 31 31 31 32 35 36 37 39 40 42 45 49 51 54 54 51 49 49 49 49 49 48 47 47 47 47 47 45 44 43 42
22 24 25 26 27 29 30 31 32 33 33 34 34 35 36 36 37 37 38 39 39 39 39 39 39 38 38 37 36 35 34 34 34 33 33 33 34 35 35 35 35 34 33 32 31 30 30 31 31 31 31 32 32 32 32 32 32 33 34 35 34 35 37 40 42 44 48 52 53 51 51 51 50 51 52 51 52 51 51 51 50 49 48 46 45
22 23 25 26 28 30 32 33 34 35 36 36 37 37 38 38 39 39 40 40 41 41 42 42 42 43 43 42 41 40 39 38 38 37 36 36 36 37 38 38 38 38 37 36 35 34 33 32 32 31 31 32 32 32 31 32 33 34 34 34 34 34 36 38 39 42 45 48 51 51 52 52 51 51 52 51 52 54 54 54 54 53 51 49 48
21 22 23 26 28 31 32 33 35 36 38 38 39 39 40 40 41 41 42 42 43 44 44 45 45 45 46 46 46 46 45 44 43 42 41 40 39 39 40 40 41 41 41 40 39 38 37 36 35 33 32 32 32 32 31 30 31 34 35 35 35 35 36 37 38 40 43 46 49 49 50 50 51 51 51 50 53 56 56 55 56 55 54 53 51
21 22 24 27 30 31 33 35 36 37 38 39 39 40 41 42 43 44 45 46 46 47 48 48 49 49 49 50 49 49 50 49 48 48 47 46 45 44 44 43 43 43 44 44 43 42 42 41 39 37 35 34 33 32 32 31 31 32 34 35 36 37 37 38 39 41 42 45 47 48 48 49 51 51 52 54 56 57 56 55 56 56 55 54 52
23 25 28 31 32 34 35 37 38 38 39 39 40 41 42 44 45 46 47 48 49 50 51 51 52 52 53 53 53 53 54 53 53 52 52 51 50 49 48 48 47 47 47 47 46 45 45 44 43 42 40 38 36 34 33 32 32 33 33 32 34 37 39 40 41 42 43 44 46 47 47 49 52 53 54 56 56 55 55 57 58 57 55 54 54
24 26 29 31 32 34 35 36 37 38 38 40 42 43 45 47 48 49 50 51 52 52 53 54 54 54 54 54 55 55 56 56 56 56 55 54 53 52 51 50 49 49 49 50 50 49 48 47 46 46 45 43 41 39 36 34 33 33 33 32 32 34 38 42 44 43 43 44 46 47 47 50 53 52 52 54 54 54 56 57 57 57 57 58 57
27 28 28 29 30 32 33 35 37 38 40 41 43 44 46 47 49 50 52 53 54 55 55 56 56 56 55 55 56 56 56 57 57 57 57 56 55 52 49 48 48 48 48 50 52 52 52 51 50 48 47 47 46 44 42 39 36 34 33 33 33 34 35 39 43 45 45 45 47 48 49 51 52 51 50 52 53 53 54 55 56 58 59 61 60
28 29 29 30 32 34 36 38 39 40 41 42 43 44 45 47 48 49 50 51 53 54 55 56 56 56 56 56 56 57 57 57 56 56 56 56 55 52 47 46 47 48 49 49 49 50 52 53 53 52 51 49 48 48 47 45 43 39 36 34 34 35 35 36 38 42 45 47 49 51 52 52 51 51 50 50 50 51 53 55 57 58 60 61 62
29 30 31 33 35 37 39 40 41 41 42 43 44 44 45 46 47 47 48 49 50 51 53 54 54 55 55 56 56 57 57 57 56 56 55 54 55 52 48 47 47 47 48 49 49 50 51 51 52 53 53 52 50 50 50 49 47 46 43 40 37 36 36 36 37 38 42 47 51 55 55 53 52 51 49 48 49 51 53 54 56 57 59 60 60
31 33 35 37 38 39 40 41 42 43 43 44 44 45 45 46 47 47 48 49 50 51 52 53 54 55 55 56 57 58 58 58 57 56 56 55 54 52 49 48 48 48 48 48 49 50 51 51 51 52 53 54 53 52 51 50 50 49 48 46 43 40 38 37 38 38 39 42 47 51 54 54 54 52 49 48 49 50 50 50 51 53 55 56 58
34 36 38 39 40 40 41 42 42 43 43 44 45 45 46 47 47 48 49 51 52 52 53 54 55 56 57 57 57 59 60 59 57 56 54 50 47 46 46 47 48 49 51 51 50 50 49 50 51 51 52 52 52 52 51 50 50 50 50 50 48 46 44 41 39 39 39 39 41 43 46 49 52 53 51 49 49 49 46 44 45 48 52 55 57
37 38 40 40 41 41 41 41 42 42 43 44 45 46 47 48 49 49 50 52 53 54 54 55 55 56 57 57 56 58 60 60 57 55 52 47 43 43 45 46 47 49 51 52 51 49 47 46 46 48 50 51 52 52 51 50 49 49 49 50 50 50 49 46 42 40 39 39 39 39 40 42 45 49 51 50 49 48 45 43 45 48 51 53 55
39 40 40 40 40 40 40 40 41 42 43 43 45 47 48 49 50 50 50 52 54 54 53 53 55 54 52 52 52 52 56 56 54 52 51 48 43 43 44 46 47 50 51 52 52 52 52 52 50 49 50 51 53 53 52 51 50 49 49 49 50 51 51 49 47 43 40 39 39 38 38 39 40 43 47 49 50 49 47 47 48 48 49 53 55
39 40 40 40 39 39 39 39 40 42 43 45 46 48 49 50 50 50 50 50 51 51 50 49 51 50 47 46 46 46 48 50 47 46 46 43 40 38 40 43 46 49 50 52 54 55 55 56 55 52 50 49 49 49 49 49 48 49 49 49 50 52 51 50 49 47 43 40 39 38 38 38 39 40 42 45 49 51 52 53 51 47 49 53 54
39 39 39 38 37 37 38 39 41 42 45 46 47 48 49 49 49 48 48 47 47 48 47 46 48 47 44 42 41 40 41 43 42 40 39 37 35 34 35 38 41 45 47 48 51 54 55 57 57 56 52 48 46 45 45 45 46 48 49 50 52 53 52 50 49 48 45 42 39 38 38 38 38 39 40 41 44 49 53 55 54 51 50 52 52
38 38 38 37 37 37 38 40 41 43 44 46 47 48 47 46 46 45 45 46 45 46 45 44 45 45 43 41 40 39 38 39 40 38 36 34 32 31 32 34 37 40 44 46 48 52 54 56 58 58 56 53 51 49 47 45 45 46 49 52 54 53 51 50 50 47 46 43 41 39 39 39 39 39 40 40 41 44 48 53 56 55 54 54 52
38 38 37 36 37 38 39 40 42 43 43 44 45 46 45 43 43 42 42 43 43 43 42 42 42 43 41 39 39 38 37 37 37 36 33 32 31 30 30 32 33 36 40 44 47 48 48 49 50 50 49 49 50 51 51 49 47 48 49 51 53 52 50 49 50 48 46 44 43 42 41 40 40 40 41 41 41 42 44 49 54 56 57 57 55
37 37 36 37 38 38 39 40 41 42 42 42 43 44 42 40 39 39 39 40 41 41 41 40 41 43 42 40 39 38 36 35 35 34 33 32 31 30 31 32 32 33 38 43 44 43 43 44 46 44 41 41 43 44 46 46 46 47 48 49 50 51 49 48 48 49 48 46 44 44 43 42 42 42 42 42 42 42 43 45 49 54 57 58 57
36 36 36 37 38 38 39 40 40 40 40 40 40 40 38 37 37 37 37 38 39 40 40 40 41 43 43 43 41 39 38 37 37 37 36 35 33 33 32 33 33 34 37 41 43 43 42 43 44 43 41 43 44 45 46 46 45 45 46 47 47 47 48 49 48 47 47 46 45 45 45 44 44 43 42 42 42 42 42 42 45 48 52 55 57
35 35 36 37 38 39 39 39 39 39 38 38 37 36 36 36 37 37 37 38 39 40 40 40 41 43 43 44 44 42 42 42 42 41 40 39 37 35 33 33 32 33 35 38 40 41 41 42 42 42 42 42 42 42 44 47 48 48 46 46 47 46 46 48 48 46 46 47 46 46 46 45 44 44 42 41 41 41 41 42 42 44 46 50 52
35 35 36 37 37 38 39 40 39 39 37 35 34 34 35 36 38 38 38 38 38 39 39 40 41 42 44 45 46 46 45 44 44 43 42 41 40 37 36 36 35 34 36 38 38 39 39 39 40 40 41 41 40 40 40 42 45 49 48 46 47 48 47 46 46 46 46 47 46 47 47 46 45 44 42 41 41 41 41 41 41 42 43 46 48
35 35 36 36 37 38 39 39 39 39 37 35 34 34 34 36 37 38 38 38 38 38 39 40 41 43 45 46 46 47 46 45 44 43 42 42 42 40 39 39 38 37 37 39 40 41 41 40 39 38 38 40 40 41 41 40 40 43 48 48 46 47 47 46 46 46 47 47 47 47 47 45 44 43 42 42 41 41 41 41 41 42 43 44 46
34 35 35 36 37 37 38 39 39 39 37 35 35 36 35 36 37 37 36 37 38 38 38 40 41 43 44 45 46 46 45 43 42 42 41 42 43 42 41 40 39 38 39 40 41 42 42 42 42 42 41 41 41 40 42 41 37 35 41 46 46 45 46 46 46 46 47 47 46 46 44 43 42 42 43 42 41 41 41 41 41 42 43 43 44
33 34 34 35 36 37 38 38 38 38 37 37 37 36 36 37 39 38 36 35 35 34 35 38 40 41 42 43 44 45 45 44 41 39 38 38 38 38 37 38 38 38 38 38 39 41 42 42 43 43 42 42 42 41 41 41 38 34 33 39 45 46 45 45 45 45 44 44 45 45 44 42 42 42 42 42 41 41 41 41 41 42 43 43 44
33 33 34 35 36 37 38 37 36 36 37 38 39 39 36 35 36 37 37 35 32 31 32 34 35 36 37 39 38 39 41 41 39 37 36 35 34 34 34 34 34 35 35 35 36 38 40 42 42 42 41 41 42 41 39 39 39 37 33 32 36 40 41 41 42 42 42 42 44 44 44 43 42 42 42 42 42 41 41 41 41 42 43 44 44
32 32 33 34 36 37 37 36 35 35 36 38 40 42 41 37 33 33 34 35 33 31 31 31 30 30 33 35 36 36 36 36 35 35 34 34 32 32 33 33 32 32 32 33 35 38 39 41 41 41 40 41 41 40 38 38 38 38 36 33 31 32 35 37 38 39 40 42 43 43 43 42 41 42 43 43 42 41 41 41 41 42 43 44 44
31 31 32 34 35 35 35 34 34 34 36 37 38 41 43 42 38 33 30 31 33 33 32 31 30 29 30 32 34 35 36 35 33 32 33 32 30 29 30 30 30 30 30 31 35 37 38 39 40 40 39 40 40 39 38 38 37 37 37 37 34 32 33 36 38 39 40 41 42 42 42 41 41 42 43 43 42 41 42 42 42 42 43 43 43
29 30 31 33 33 34 33 33 33 33 34 36 37 39 40 42 42 39 34 31 31 30 30 31 31 31 31 31 32 33 34 34 32 30 30 30 28 27 28 29 30 30 30 31 34 36 37 37 38 38 38 39 39 38 37 37 37 36 36 36 37 35 34 34 36 37 38 39 39 40 41 41 41 42 43 43 42 42 43 43 43 42 42 42 42
27 28 29 31 32 32 31 31 31 31 32 34 35 37 38 38 39 40 39 38 35 32 30 29 30 31 32 31 30 30 31 32 31 30 29 27 26 25 27 29 27 25 25 26 29 32 34 35 35 36 36 37 37 36 36 36 35 35 35 35 37 39 36 32 30 30 32 33 35 36 37 39 40 41 42 42 42 42 43 43 43 42 42 42 42
25 26 27 28 30 31 30 29 29 30 31 32 33 35 36 36 36 36 37 38 39 38 36 33 30 29 29 29 29 29 29 28 28 28 28 26 24 25 28 29 27 25 23 24 27 31 33 35 36 36 36 37 37 37 37 36 34 34 34 34 34 37 38 36 34 32 31 32 32 33 35 37 39 40 41 41 42 42 43 44 44 43 43 43 42
24 24 25 26 28 28 28 28 28 29 30 31 31 32 33 34 35 35 35 35 36 38 38 37 34 31 29 27 27 27 26 26 26 27 27 26 26 26 29 30 30 29 29 29 30 33 35 37 38 38 38 39 39 38 36 35 33 33 33 33 33 34 35 36 37 37 36 34 32 32 34 36 37 38 39 41 42 44 45 45 45 44 43 43 42
24 24 24 25 27 27 26 26 26 27 28 29 29 31 32 33 33 34 34 35 35 36 37 37 37 35 32 29 28 26 25 25 26 26 27 27 27 27 29 30 30 31 32 33 34 35 36 37 38 38 39 40 40 39 37 35 33 32 32 32 32 32 33 33 34 35 35 33 32 33 34 36 37 38 39 40 42 44 45 45 44 43 43 42 42
23 23 23 25 26 26 26 25 26 26 27 28 28 29 31 32 32 33 33 34 34 34 35 35 36 36 36 33 31 30 31 32 32 31 30 29 28 27 28 29 29 31 32 33 32 32 33 35 36 36 36 36 36 35 35 34 34 33 33 33 32 32 32 31 32 33 33 30 30 32 34 35 36 37 39 41 43 44 44 44 43 42 42 41 41
21 21 22 24 25 25 25 26 26 26 27 27 28 28 29 30 31 31 32 33 33 32 32 33 34 34 35 33 32 33 35 36 35 33 31 29 27 25 26 27 28 29 30 30 29 30 32 34 35 34 34 33 30 27 26 28 29 29 30 31 31 31 31 32 33 34 32 28 27 29 31 34 37 39 41 43 44 43 43 42 42 42 42 41 42
21 21 22 23 24 24 24 25 25 26 27 27 27 27 28 28 29 30 30 31 31 30 30 31 32 33 32 30 30 31 33 33 32 29 26 25 24 23 24 25 26 27 27 27 28 29 30 32 33 33 33 32 29 24 22 24 25 26 27 28 28 29 31 33 35 35 31 26 24 27 32 36 39 41 41 42 42 41 41 41 41 41 41 41 41
20 20 21 22 23 24 24 25 25 25 26 26 26 26 27 27 27 28 28 28 28 28 28 30 30 30 29 27 26 26 27 27 27 25 23 22 23 23 23 23 24 25 25 26 27 28 28 29 29 29 30 29 27 24 21 21 23 24 25 23 23 26 30 31 31 30 28 25 25 28 33 38 40 40 39 39 39 39 39 39 39 39 39 39 39
19 20 21 22 23 23 24 24 25 25 25 25 25 25 26 26 26 25 25 25 25 26 28 29 29 28 27 26 25 24 24 24 24 24 23 23 23 23 23 23 23 23 24 24 26 27 27 27 26 25 25 25 24 22 20 19 19 21 22 20 19 21 25 26 26 25 26 27 28 30 33 36 37 36 36 36 37 37 37 37 37 37 37 37 37
18 19 20 21 22 22 22 23 24 24 24 25 25 25 25 24 24 23 23 24 24 25 27 28 28 28 27 27 26 25 25 25 25 24 24 24 24 23 24 24 24 23 23 22 22 23 24 24 24 23 23 23 22 20 18 17 16 17 19 20 19 20 23 25 25 26 27 27 28 30 31 33 33 33 33 33 34 34 35 35 34 34 35 35 35
17 18 19 20 20 20 20 21 22 22 23 23 23 23 23 23 22 22 23 23 24 25 26 27 28 29 29 29 29 29 28 28 27 26 26 25 24 24 23 23 23 23 22 22 21 21 21 20 19 19 19 19 18 17 17 17 16 15 14 15 16 17 18 20 21 23 23 24 25 26 27 28 29 29 30 30 31 31 32 32 32 32 32 32 32
17 18 19 19 19 19 19 19 20 21 21 22 22 21 21 21 21 21 22 23 23 25 26 27 28 29 30 30 31 31 31 31 31 30 29 28 27 26 24 24 23 23 22 22 21 20 19 18 17 17 17 17 17 17 17 17 16 15 14 13 13 13 13 14 15 16 17 19 20 21 23 24 25 25 26 27 27 28 29 29 30 30 30 30 30
16 17 18 19 19 19 19 19 19 20 20 20 21 21 21 20 20 21 21 22 23 24 25 26 27 27 28 29 30 30 31 31 31 31 31 31 30 30 28 27 25 24 23 22 21 19 19 18 18 18 18 19 18 18 17 15 15 14 13 13 12 11 11 10 11 11 11 13 14 16 17 19 20 21 22 23 24 25 25 26 26 27 27 27 28
15 16 17 18 18 19 18 18 19 19 19 19 19 20 20 20 20 20 20 21 21 22 23 24 25 26 27 28 28 29 30 30 30 30 31 31 31 31 31 30 29 28 26 25 23 22 21 21 20 20 19 19 18 18 17 16 14 13 11 10 9 9 8 8 8 7 7 8 9 10 12 13 15 17 19 20 21 22 23 23 24 24 24 25 25
15 15 15 16 17 18 18 18 19 19 19 19 18 19 19 19 19 19 20 20 20 21 21 22 23 24 25 26 27 27 28 28 29 29 29 29 30 30 30 30 30 30 29 28 27 26 25 24 23 23 21 20 19 18 17 16 15 13 12 10 9 9 8 8 7 6 4 3 4 5 8 10 12 15 17 18 19 20 21 21 22 22 22 23 23
14 14 15 16 16 17 18 18 18 19 19 19 19 18 18 18 18 18 19 19 19 20 20 21 22 23 24 24 25 26 26 27 27 28 28 28 28 29 29 29 29 29 29 29 29 28 27 26 25 25 25 24 23 21 20 18 17 15 14 13 11 10 10 10 10 8 6 3 1 2 5 8 11 13 15 16 17 18 18 19 20 20 21 22 23
14 14 14 15 15 16 16 16 17 17 18 18 18 18 17 17 17 17 17 17 18 18 19 20 21 22 23 23 24 24 25 26 26 26 27 27 27 27 27 28 28 28 29 28 28 28 27 27 27 27 27 27 27 27 26 26 25 23 21 19 17 15 14 14 13 11 8 6 4 2 3 6 10 12 14 15 16 16 16 17 18 19 20 21 21
14 14 14 14 14 15 15 16 16 17 17 17 17 17 17 16 16 16 16 17 17 17 18 19 19 20 21 22 23 23 24 24 25 26 26 26 27 27 27 27 27 27 27 27 27 26 26 27 27 28 28 28 28 28 29 29 28 28 26 25 24 23 22 20 18 15 12 9 6 5 5 7 9 12 13 14 14 14 15 16 16 17 18 18 18
Wind_Direction
14 11 9 7 4 2 360 358 356 352 349 345 344 345 343 342 340 337 334 331 329 328 329 330 331 331 332 333 333 332 329 327 323 320 318 316 315 314 313 309 304 300 295 289 282 276 272 269 267 264 263 261 258 256 255 254 253 253 253 254 253 252 253 254 256 259 261 260 260 261 261 260 259 258 256 254 250 248 247 245 243 242 242 241 241
8 5 2 1 359 357 355 353 351 349 347 344 342 340 337 335 333 330 328 327 327 328 327 326 326 324 323 323 325 326 326 326 325 322 319 316 313 311 310 308 306 305 303 301 297 291 284 278 274 271 268 265 263 260 259 257 256 255 253 253 253 252 252 253 255 258 260 259 258 258 257 257 257 257 255 253 250 249 248 247 245 243 242 241 240
358 356 354 353 352 352 351 349 347 346 344 342 341 339 337 336 333 330 327 325 324 324 324 323 322 319 318 317 316 317 318 320 320 319 319 317 315 312 310 307 305 304 303 302 302 300 295 290 285 281 276 271 268 265 263 260 258 257 256 255 254 253 252 253 254 256 258 259 258 256 254 253 255 256 255 254 252 250 250 250 248 246 244 242 240
349 347 345 344 342 342 343 341 340 339 337 337 336 335 334 333 332 330 329 327 325 324 322 321 318 316 314 313 311 311 312 312 312 312 312 313 313 312 310 308 305 303 302 301 301 300 298 296 294 292 286 280 275 271 267 264 261 260 259 258 257 256 255 254 253 254 257 259 258 257 255 253 254 255 255 254 251 250 250 251 249 246 245 243 241
341 340 338 337 335 334 335 334 333 332 332 331 330 330 330 329 328 327 327 326 325 324 323 320 318 316 314 313 311 310 310 308 306 305 306 306 306 307 307 306 304 303 301 300 299 298 296 295 295 296 292 287 283 279 275 270 266 264 262 260 260 260 260 258 255 254 256 257 257 257 256 254 253 253 254 253 252 251 250 250 248 246 244 242 240
330 330 330 330 329 329 329 329 329 329 328 328 327 327 326 325 324 324 323 323 322 322 321 319 318 317 315 314 313 311 310 308 305 304 302 301 301 301 301 301 301 301 300 300 298 297 295 293 293 293 292 290 288 285 282 277 273 269 266 264 263 263 264 263 260 258 257 256 256 256 255 254 253 253 253 253 253 252 250 249 246 244 241 240 239
322 323 323 322 322 322 323 323 324 324 324 323 323 323 322 322 321 320 320 319 318 318 317 316 316 315 314 313 313 312 310 307 305 304 302 301 300 298 298 298 298 297 297 297 296 295 293 292 290 290 289 289 290 289 286 282 278 274 270 268 266 265 264 264 264 263 260 258 257 256 255 254 253 253 253 253 253 252 250 247 245 243 241 239 237
310 311 312 313 314 315 315 316 318 319 319 319 319 320 320 320 319 318 317 317 316 315 314 313 312 311 311 310 310 310 308 307 305 304 302 301 299 297 296 295 294 294 294 294 293 292 291 290 289 288 287 286 287 288 287 284 280 277 275 271 268 265 264 263 263 263 262 261 259 257 255 254 253 252 251 249 247 247 245 244 244 244 243 240 238
300 303 305 307 308 308 309 311 313 314 315 315 316 317 317 317 316 316 315 315 314 313 312 311 310 309 309 308 307 306 305 304 304 303 303 301 299 297 295 294 292 292 291 291 290 290 289 289 288 287 287 286 285 284 283 281 279 276 275 272 268 265 263 261 262 261 261 260 260 258 256 254 252 250 248 246 245 246 245 244 244 244 243 242 241
296 300 303 305 306 306 307 309 310 312 313 313 314 314 313 313 313 312 312 311 310 310 309 308 307 306 306 305 304 303 302 301 301 300 300 300 299 298 296 294 292 291 290 288 287 287 287 288 287 287 286 284 283 282 281 279 277 275 275 271 267 264 262 260 259 258 258 258 258 257 255 253 252 250 248 248 248 247 246 245 245 244 242 241 240
296 297 297 298 299 300 303 306 308 309 310 311 312 312 312 312 311 310 309 308 307 306 305 305 304 303 302 301 300 299 298 298 297 297 297 296 296 296 295 294 292 290 288 287 286 285 284 284 285 285 285 283 282 281 280 279 277 275 273 270 266 262 260 258 257 256 255 255 257 256 254 254 254 252 250 250 248 247 246 245 245 244 242 240 239
298 297 297 297 298 301 304 306 307 308 308 309 309 309 308 308 307 306 305 305 305 304 303 302 302 301 300 298 297 296 295 294 294 294 295 295 295 294 293 292 290 288 286 285 285 284 283 282 282 281 282 282 282 281 279 278 277 276 275 272 267 263 259 258 257 256 254 253 254 254 253 254 255 253 252 251 249 247 246 244 243 243 242 242 242
301 301 303 305 306 308 309 309 310 309 309 309 308 308 307 306 305 304 302 302 301 300 300 300 299 299 298 297 296 295 294 293 292 292 292 293 294 294 292 289 287 286 285 284 283 282 281 281 280 279 278 278 279 280 279 278 277 276 276 275 271 266 262 258 257 256 255 253 253 253 252 252 253 253 253 253 252 249 246 243 242 241 241 242 244
306 308 309 310 311 311 311 312 312 311 311 311 310 309 308 307 306 305 304 303 301 300 299 298 298 297 296 296 295 293 293 292 291 291 290 290 291 291 291 289 286 284 283 282 281 280 280 280 279 278 277 275 274 275 276 277 276 275 275 274 273 271 267 262 258 256 254 252 252 253 254 252 252 252 253 253 253 252 249 246 245 242 242 244 247
310 311 312 313 313 313 314 314 314 314 314 314 313 312 311 310 309 308 307 305 304 302 301 299 298 297 295 294 292 291 291 291 290 289 289 288 289 290 290 288 286 284 282 279 278 277 277 278 277 277 276 275 273 271 271 273 275 275 274 273 273 272 270 267 263 259 256 253 252 253 255 254 252 251 251 251 253 254 255 255 253 251 250 249 247
312 313 314 315 316 317 317 317 317 317 316 315 314 314 313 312 311 309 307 305 304 302 300 298 297 295 294 292 290 289 289 288 288 287 287 289 290 290 289 288 286 284 282 281 280 278 277 276 275 275 275 274 273 271 270 270 272 272 272 272 272 271 270 269 267 265 262 259 256 256 257 257 255 252 250 249 250 253 256 256 254 250 247 244 242
314 315 316 317 318 320 320 320 319 318 317 315 315 314 313 312 310 308 306 305 303 301 300 298 296 294 293 292 291 291 289 288 288 288 287 289 291 289 287 286 285 283 282 281 280 279 277 274 273 273 272 272 272 272 271 271 270 269 269 270 270 270 269 268 268 267 265 263 261 259 258 258 256 253 251 248 246 248 249 249 247 243 239 237 238
316 317 318 319 320 321 321 320 319 317 316 315 315 314 312 311 310 309 307 306 304 303 301 299 298 297 296 295 294 293 292 290 291 291 289 289 290 289 286 284 282 280 279 278 277 276 274 272 271 271 270 270 270 270 270 270 269 268 267 267 267 267 267 266 267 266 265 264 263 261 259 258 256 254 251 247 244 243 242 243 244 241 236 236 238
317 318 319 320 321 321 320 319 318 317 317 317 316 315 313 312 312 311 309 308 306 305 304 303 301 300 299 299 297 296 295 294 294 295 294 294 295 293 289 286 283 281 279 279 278 277 275 274 272 271 270 270 270 269 269 267 266 265 265 264 263 263 264 264 264 265 265 264 264 263 261 260 259 257 254 249 245 241 240 241 242 239 237 238 239
318 319 320 322 322 321 321 320 320 320 319 318 317 316 315 315 314 313 311 310 309 308 307 306 304 303 304 304 303 302 302 301 302 303 302 301 301 298 292 287 285 283 282 281 279 277 275 273 272 270 270 271 270 269 268 265 263 262 262 260 259 261 263 263 263 264 265 264 264 265 264 263 264 263 260 256 250 244 241 240 239 238 237 239 238
319 320 322 323 322 322 322 322 322 321 320 319 318 317 317 317 316 315 313 312 310 309 308 308 307 306 308 310 309 309 310 309 308 310 310 307 305 302 295 289 286 285 284 281 279 278 277 276 275 274 273 273 272 270 268 266 263 261 260 258 259 262 264 263 262 263 264 263 263 263 263 263 264 264 263 260 256 249 244 241 239 237 236 237 237
320 321 323 323 323 323 324 323 322 322 321 321 320 319 319 318 316 315 314 312 311 310 310 311 311 311 312 313 312 312 313 313 313 313 311 308 306 303 297 292 290 288 286 283 281 280 281 281 281 280 279 277 275 273 270 268 265 261 259 258 259 261 262 262 262 262 261 260 260 260 259 260 261 262 263 261 258 253 247 243 241 239 237 237 237
320 321 322 322 324 324 324 323 323 323 323 324 322 320 320 318 316 315 315 314 313 312 313 315 314 314 314 315 315 315 316 317 317 315 310 306 304 302 299 296 293 289 285 282 281 282 283 281 280 280 280 280 278 276 274 271 267 262 258 256 256 258 258 259 260 259 258 258 257 256 257 257 257 258 259 259 258 256 251 246 244 240 238 237 236
320 320 322 323 324 324 323 322 323 324 326 326 324 321 320 319 318 319 319 317 315 314 316 317 316 315 315 315 317 318 320 320 319 318 315 309 303 300 299 297 294 289 284 282 283 283 283 281 280 280 281 280 279 277 275 272 269 265 261 257 254 253 254 255 254 254 254 253 252 251 253 254 253 254 256 257 258 257 254 251 247 244 241 239 238
319 320 322 323 323 323 322 323 324 327 329 328 325 323 324 324 324 323 321 319 317 317 318 319 317 316 315 316 317 319 321 320 319 319 319 315 309 306 305 302 297 291 287 285 286 285 283 282 282 282 282 283 282 280 278 274 269 266 263 258 253 250 249 249 249 249 249 248 247 248 250 252 253 255 256 258 258 257 255 253 250 247 243 241 240
317 319 322 322 323 324 323 324 327 329 330 329 328 329 331 329 327 325 323 321 320 320 320 321 319 318 317 317 317 318 319 318 317 318 318 316 314 314 314 311 307 301 295 292 292 292 291 289 286 284 283 282 282 283 284 282 275 269 264 258 251 247 245 245 245 245 246 246 245 245 248 252 255 255 255 255 255 255 255 253 250 247 244 241 240
316 320 322 323 324 325 325 327 329 330 332 333 335 337 336 331 327 326 325 324 323 323 323 321 320 318 317 317 317 317 316 316 315 315 314 313 313 313 313 311 310 307 303 300 301 302 300 298 296 292 288 286 284 284 286 288 285 274 265 259 253 247 244 244 245 245 244 245 244 245 248 252 252 251 251 252 253 255 255 252 249 247 246 243 240
317 321 323 324 326 327 328 330 331 331 334 338 340 340 338 333 329 328 330 328 325 323 321 319 316 315 314 314 314 313 312 311 311 311 311 310 309 310 310 309 309 307 305 305 306 304 301 299 298 296 294 292 291 290 288 288 289 281 267 260 257 253 247 245 245 244 243 244 245 245 247 248 247 247 249 250 253 254 254 251 248 247 246 243 239
319 322 325 327 328 329 330 331 332 334 337 341 341 341 339 335 330 329 331 332 327 319 313 311 311 311 310 310 310 309 308 309 309 308 307 306 305 305 305 305 304 303 302 301 300 297 295 294 294 294 294 293 293 293 292 291 291 289 277 263 257 254 248 243 241 242 242 243 244 245 245 245 245 246 246 247 251 253 252 249 248 246 244 241 238
321 324 327 329 330 330 331 332 334 337 340 342 341 340 339 337 332 329 330 333 330 321 312 309 310 310 308 308 308 307 306 307 308 307 306 305 304 302 301 300 299 298 297 296 294 292 292 292 292 293 294 295 293 293 293 292 291 291 289 276 260 251 246 241 239 241 243 244 244 244 245 244 244 244 244 245 247 250 250 249 247 244 242 240 237
323 327 330 331 331 331 332 333 336 340 343 343 341 338 337 336 335 333 333 333 332 327 323 321 320 317 312 309 309 309 308 309 310 310 309 310 309 306 303 301 299 298 297 296 294 293 292 292 293 293 293 293 292 291 290 291 290 289 289 286 276 263 253 248 245 245 247 247 245 244 244 243 242 242 243 244 245 247 247 246 243 240 240 239 236
325 329 332 332 332 332 332 335 339 343 344 344 343 339 336 335 336 336 336 335 333 332 332 332 332 330 323 316 313 312 312 314 316 315 312 312 312 309 306 305 303 301 300 297 295 294 294 293 293 294 294 292 291 290 289 287 286 286 285 285 283 277 269 261 256 252 250 247 245 244 244 242 241 242 242 244 245 245 245 243 239 237 237 236 233
327 332 333 332 332 333 334 337 342 345 345 344 343 340 336 334 335 336 337 338 338 337 337 337 337 336 333 327 322 319 316 316 318 317 314 312 313 312 311 310 307 303 301 299 295 293 292 292 291 291 291 290 290 290 288 286 284 283 282 280 278 278 275 267 257 251 249 246 244 244 243 242 242 241 241 243 244 244 243 241 238 235 233 231 229
329 333 334 333 333 334 336 339 343 346 346 345 342 339 337 335 334 334 334 336 338 341 343 343 341 338 336 334 332 328 323 319 319 318 317 316 316 316 315 312 309 306 305 303 301 299 297 297 296 294 291 289 289 289 287 286 284 282 280 278 275 275 276 271 258 251 251 249 246 244 244 243 241 240 240 241 242 241 240 238 236 233 231 229 226
330 332 333 333 334 335 337 341 345 347 347 346 343 340 337 335 334 333 332 331 332 334 338 341 342 341 339 337 335 332 328 324 322 321 322 323 322 321 319 318 318 320 318 315 314 313 311 308 305 303 298 294 291 289 287 285 284 282 280 279 276 274 273 270 263 259 261 259 253 248 246 244 241 240 239 240 240 238 237 236 234 233 232 229 225
329 331 332 334 335 335 337 342 347 348 346 345 342 339 337 335 335 334 333 331 329 328 331 335 338 341 341 340 337 333 328 325 323 322 325 328 328 325 323 324 325 325 323 320 319 318 316 313 310 308 305 300 295 292 288 284 282 280 279 279 277 274 270 266 263 261 260 258 254 249 246 245 243 241 239 239 239 240 239 237 235 233 231 228 224
328 330 334 336 336 336 339 345 349 349 346 344 342 340 339 338 336 334 333 331 330 328 329 332 335 338 340 342 340 335 331 328 326 326 329 332 332 329 327 327 327 325 321 319 320 319 317 316 314 311 308 303 298 293 290 286 282 279 277 277 276 271 267 264 260 255 250 249 250 249 246 245 243 242 240 239 238 237 235 234 232 230 228 225 221
327 333 338 337 337 338 341 346 350 349 347 345 343 341 340 339 338 336 333 331 331 330 330 332 334 334 336 338 340 339 337 334 333 333 335 336 334 331 329 327 325 321 316 316 319 320 320 321 321 319 316 312 304 296 291 288 284 279 276 276 276 273 268 262 254 246 243 246 250 249 246 244 242 241 241 239 237 234 231 229 228 226 224 221 218
328 336 340 339 339 340 343 347 349 348 346 346 344 343 342 340 338 336 334 332 332 332 333 335 335 335 335 337 340 341 337 331 328 330 332 333 333 334 333 329 325 322 319 319 323 327 328 329 330 331 330 329 322 310 299 294 290 284 280 277 277 275 270 262 251 243 242 248 252 248 246 245 243 241 239 236 234 232 230 229 228 227 224 221 219
331 338 340 340 341 343 345 348 348 347 346 346 345 344 343 342 340 338 335 334 334 335 337 338 338 339 341 342 341 338 330 325 325 328 331 334 339 342 342 338 334 330 328 327 329 331 332 333 336 338 339 339 337 330 317 304 296 291 286 282 280 277 271 262 251 243 241 248 254 250 246 244 241 238 235 232 231 231 231 230 229 227 225 222 220
334 338 340 342 343 345 347 349 349 348 347 347 346 346 346 345 343 342 340 340 340 341 343 344 344 346 348 349 346 340 333 330 333 336 339 344 349 350 350 347 342 338 336 335 334 333 333 334 338 340 340 340 340 339 331 318 307 300 296 293 290 283 271 258 248 242 243 250 255 252 246 242 239 235 232 230 229 229 229 228 226 224 220 218 216
336 339 341 344 346 347 349 350 350 349 349 350 351 351 350 349 349 348 348 349 350 350 351 353 354 357 360 1 358 354 350 347 346 347 349 352 353 353 353 351 348 345 343 341 338 336 334 333 335 337 338 339 339 338 336 331 324 317 311 306 297 282 266 254 248 248 250 253 254 250 243 238 235 233 231 230 228 226 225 223 222 219 217 214 213
337 339 343 346 347 349 349 349 350 351 353 355 356 356 355 355 356 356 357 359 1 2 3 4 6 10 12 12 10 7 4 2 359 357 357 357 356 353 352 350 348 347 347 346 344 341 338 337 337 339 340 340 340 340 339 337 332 324 315 304 290 273 262 256 254 253 253 252 250 245 238 233 231 229 228 227 226 224 222 221 218 216 214 212 210
336 340 344 347 348 350 350 349 351 354 357 359 1 1 2 2 4 6 8 11 14 15 15 14 15 18 21 21 21 20 19 17 14 10 7 5 2 358 355 352 351 350 351 351 350 348 345 343 344 345 344 344 345 346 346 344 342 337 328 315 302 288 278 272 265 260 257 254 248 241 235 232 230 229 227 226 225 222 220 218 215 213 211 208 207
337 342 345 347 348 350 350 351 354 356 358 1 4 7 9 10 12 15 18 20 22 23 23 22 23 24 25 26 27 27 27 27 25 24 21 19 16 12 8 5 2 360 358 358 356 354 352 352 354 356 357 357 358 359 358 357 356 356 353 346 337 326 315 302 287 274 264 256 247 241 235 232 229 228 226 225 223 221 219 216 213 211 208 207 206
339 343 344 345 348 350 351 353 356 357 359 2 6 9 13 15 17 20 22 24 25 26 26 26 27 27 27 28 29 30 30 31 30 30 29 28 27 26 24 22 20 17 14 12 9 6 5 4 4 6 8 7 7 7 7 8 9 10 10 7 3 356 348 334 316 297 279 264 252 244 239 233 228 226 224 222 220 218 215 212 210 208 207 206 204
340 343 343 344 347 350 351 354 356 357 359 2 5 9 13 15 16 19 21 23 25 27 28 28 29 29 29 30 29 30 31 31 31 31 31 31 31 31 31 30 30 29 28 27 25 23 23 22 20 18 17 15 15 16 17 18 20 23 25 25 23 20 14 5 351 332 304 279 262 251 244 237 228 222 219 217 215 212 209 207 205 204 203 203 200
340 341 343 345 347 349 351 355 356 357 359 1 4 7 11 13 14 16 18 20 23 26 28 29 30 30 30 31 30 30 30 30 30 31 31 31 31 32 32 32 33 32 32 31 31 31 33 34 34 31 29 27 26 26 25 24 26 27 30 34 38 38 38 36 29 16 352 309 271 250 241 234 223 214 209 208 206 204 202 200 198 198 197 195 192
340 340 343 346 347 349 352 354 355 356 358 0 2 4 8 10 12 15 17 19 21 24 25 27 28 28 29 29 30 29 30 30 29 30 30 30 30 30 31 31 33 33 33 33 33 32 34 38 41 43 43 42 41 40 39 38 37 36 35 36 38 41 47 54 53 47 40 33 7 232 223 216 207 200 198 197 197 196 194 193 191 190 188 186 183
340 340 342 343 345 348 351 353 355 357 358 359 1 3 5 7 10 13 16 17 20 22 23 24 25 25 25 26 26 27 28 29 29 28 28 29 29 29 29 30 31 33 33 34 35 35 36 38 41 44 47 48 49 50 49 49 49 49 49 49 51 52 55 59 60 58 58 61 75 119 183 193 190 186 184 184 184 185 184 183 182 180 180 178 178
338 341 343 342 344 347 348 350 354 356 358 360 2 3 5 6 8 11 13 14 16 19 20 20 21 22 22 23 23 24 25 26 27 27 27 27 27 27 28 28 29 31 32 33 33 35 38 40 41 42 44 46 48 49 50 50 51 52 54 55 57 57 57 57 59 60 62 66 76 102 140 161 165 166 166 167 169 170 169 169 169 170 170 171 172